Change the Weather History Date:

Saturday, April 13, 2013

  Actual Average (KLOT) Record (KLOT)
Temperature  
Mean Temperature 42 °F 49 °F  
Max Temperature 48 °F 60 °F 83 °F (2006)
Min Temperature 36 °F 39 °F 29 °F (2007)
Degree Days  
Heating Degree Days 24 16  
Month to date heating degree days 234  
Since 1 July heating degree days 5779  
Cooling Degree Days 0 0  
Month to date cooling degree days 0  
Year to date cooling degree days 0  
Moisture  
Dew Point 31 °F    
Average Humidity 70    
Maximum Humidity 90    
Minimum Humidity 52    
Precipitation  
Precipitation 0.00 in 0.13 in 0.77 in (2009)
Month to date precipitation 1.52  
Year to date precipitation 8.00  
Snow  
Snow 0.00 in 0.00 in 0.30 in (1997)
Month to date snowfall 0.4  
Since 1 July snowfall 32.2  
Snow Depth -    
Sea Level Pressure  
Sea Level Pressure 29.93 in    
Wind  
Wind Speed 13 mph (West)    
Max Wind Speed 22 mph    
Max Gust Speed 30 mph    
Visibility 10 miles    
Events      
T = Trace of Precipitation, MM = Missing Value Source: NWS Daily Summary

Daily Weather History Graph

Daily Weather History Graph

Search for Another Location

Airport or City:

Trip Planner

Search our weather history database for the weather conditions in past years. The results will help you decide how hot, cold, wet, or windy it might be!

Date:

Astronomy

Apr. 13, 2013 Rise Set
Actual Time 6:16 AM CDT 7:32 PM CDT
Civil Twilight 5:48 AM CDT 8:00 PM CDT
Nautical Twilight 5:13 AM CDT 8:35 PM CDT
Astronomical Twilight 4:37 AM CDT 9:11 PM CDT
Moon 8:06 AM CDT (4/13) 10:57 PM CDT (4/13)
Length of Visible Light 14h 12m
Length of Day
13h 15m
Waxing Crescent, 10% of the Moon is Illuminated
Apr 13
Waxing Crescent
Apr 18
First Quarter
Apr 25
Full
May 2
Last Quarter
May 9
New

Hourly Weather History & Observations

Time (CDT) Temp. Windchill Dew Point Humidity Pressure Visibility Wind Dir Wind Speed Gust Speed Precip Events Conditions
12:15 AM 39.0 °F 31.0 °F 32.0 °F 76% 29.88 in 10.0 mi West 13.8 mph - N/A   Overcast
12:35 AM 38.7 °F 30.9 °F 31.8 °F 76% 29.88 in 10.0 mi West 12.7 mph - N/A   Overcast
12:55 AM 38.5 °F 31.1 °F 31.8 °F 77% 29.88 in 10.0 mi West 11.5 mph - N/A   Overcast
1:15 AM 38.3 °F 30.9 °F 32.0 °F 78% 29.89 in 10.0 mi West 11.5 mph - N/A   Overcast
1:35 AM 37.9 °F 28.9 °F 32.0 °F 79% 29.89 in 10.0 mi West 16.1 mph - N/A   Overcast
1:55 AM 37.4 °F 28.5 °F 32.0 °F 81% 29.89 in 10.0 mi West 15.0 mph - N/A   Overcast
2:15 AM 37.4 °F 29.3 °F 32.0 °F 81% 29.89 in 10.0 mi West 12.7 mph 18.4 mph N/A   Overcast
2:35 AM 37.0 °F 29.3 °F 32.9 °F 85% 29.88 in 10.0 mi West 11.5 mph - N/A   Overcast
2:55 AM 36.9 °F 29.6 °F 32.4 °F 84% 29.88 in 10.0 mi West 10.4 mph - N/A   Overcast
3:15 AM 36.7 °F 30.5 °F 32.9 °F 86% 29.87 in 10.0 mi West 8.1 mph - N/A   Overcast
3:35 AM 36.5 °F 31.0 °F 33.1 °F 87% 29.87 in 10.0 mi West 6.9 mph - N/A   Overcast
3:55 AM 36.7 °F 30.5 °F 34.0 °F 90% 29.88 in 10.0 mi WSW 8.1 mph - N/A   Overcast
4:15 AM 37.0 °F 30.4 °F 32.4 °F 83% 29.88 in 10.0 mi West 9.2 mph - N/A   Overcast
4:35 AM 37.0 °F 29.3 °F 32.5 °F 84% 29.87 in 10.0 mi WSW 11.5 mph - N/A   Overcast
4:55 AM 37.4 °F 27.8 °F 32.0 °F 81% 29.88 in 10.0 mi West 17.3 mph 21.9 mph N/A   Overcast
5:15 AM 36.7 °F 26.3 °F 32.0 °F 83% 29.88 in 10.0 mi West 19.6 mph 24.2 mph N/A   Overcast
5:35 AM 36.5 °F 26.7 °F 30.9 °F 80% 29.88 in 10.0 mi West 17.3 mph 23.0 mph N/A   Overcast
5:55 AM 36.0 °F 27.1 °F 30.0 °F 79% 29.88 in 10.0 mi West 13.8 mph - N/A   Overcast
6:15 AM 36.0 °F 27.5 °F 30.7 °F 81% 29.88 in 10.0 mi West 12.7 mph 17.3 mph N/A   Overcast
6:35 AM 36.0 °F 27.5 °F 30.9 °F 82% 29.89 in 10.0 mi West 12.7 mph - N/A   Overcast
6:55 AM 36.0 °F 28.0 °F 30.7 °F 81% 29.89 in 10.0 mi West 11.5 mph - N/A   Overcast
7:15 AM 36.5 °F 28.7 °F 30.6 °F 79% 29.89 in 10.0 mi West 11.5 mph 17.3 mph N/A   Overcast
7:35 AM 36.5 °F 26.7 °F 30.2 °F 78% 29.90 in 10.0 mi West 17.3 mph - N/A   Overcast
7:55 AM 36.5 °F 26.7 °F 30.0 °F 77% 29.90 in 10.0 mi West 17.3 mph 21.9 mph N/A   Overcast
8:15 AM 36.5 °F 26.0 °F 29.8 °F 77% 29.91 in 10.0 mi West 19.6 mph - N/A   Overcast
8:35 AM 36.5 °F 26.0 °F 29.8 °F 77% 29.92 in 10.0 mi West 19.6 mph 24.2 mph N/A   Overcast
8:55 AM 36.7 °F 26.9 °F 30.0 °F 77% 29.92 in 10.0 mi West 17.3 mph 21.9 mph N/A   Overcast
9:15 AM 36.5 °F 25.7 °F 29.5 °F 76% 29.92 in 10.0 mi West 20.7 mph 25.3 mph N/A   Overcast
9:35 AM 37.4 °F 27.2 °F 29.8 °F 74% 29.93 in 10.0 mi West 19.6 mph 26.5 mph N/A   Overcast
9:55 AM 37.6 °F 27.7 °F 29.5 °F 73% 29.93 in 10.0 mi West 18.4 mph 27.6 mph N/A   Overcast
10:15 AM 38.3 °F 29.7 °F 29.7 °F 71% 29.93 in 10.0 mi West 15.0 mph 26.5 mph N/A   Overcast
10:35 AM 38.5 °F 28.3 °F 28.6 °F 68% 29.94 in 10.0 mi West 20.7 mph 26.5 mph N/A   Overcast
10:55 AM 39.2 °F 29.3 °F 28.8 °F 66% 29.95 in 10.0 mi West 20.7 mph 27.6 mph N/A   Overcast
11:15 AM 39.4 °F 29.2 °F 28.9 °F 66% 29.95 in 10.0 mi West 21.9 mph 26.5 mph N/A   Overcast
11:35 AM 39.7 °F 29.7 °F 28.9 °F 65% 29.96 in 10.0 mi West 21.9 mph - N/A   Overcast
11:55 AM 40.1 °F 30.2 °F 28.9 °F 64% 29.96 in 10.0 mi West 21.9 mph 27.6 mph N/A   Overcast
12:15 PM 40.5 °F 30.9 °F 29.3 °F 64% 29.96 in 10.0 mi West 20.7 mph 26.5 mph N/A   Overcast
12:35 PM 41.4 °F 31.9 °F 29.7 °F 63% 29.96 in 10.0 mi West 21.9 mph 27.6 mph N/A   Overcast
12:55 PM 41.7 °F 32.6 °F 27.7 °F 58% 29.96 in 10.0 mi West 20.7 mph 29.9 mph N/A   Overcast
1:15 PM 43.5 °F 35.5 °F 29.5 °F 58% 29.96 in 10.0 mi West 18.4 mph 23.0 mph N/A   Mostly Cloudy
1:35 PM 43.5 °F 35.2 °F 29.7 °F 58% 29.96 in 10.0 mi West 19.6 mph 25.3 mph N/A   Mostly Cloudy
1:55 PM 43.5 °F 35.2 °F 29.5 °F 58% 29.96 in 10.0 mi WNW 19.6 mph - N/A   Overcast
2:15 PM 44.6 °F 37.2 °F 29.3 °F 55% 29.96 in 10.0 mi West 17.3 mph 24.2 mph N/A   Overcast
2:35 PM 46.9 °F - 30.0 °F 52% 29.96 in 10.0 mi West 15.0 mph 25.3 mph N/A   Mostly Cloudy
2:55 PM 46.4 °F 39.5 °F 29.7 °F 52% 29.96 in 10.0 mi West 17.3 mph 28.8 mph N/A   Scattered Clouds
3:15 PM 46.9 °F - 30.4 °F 53% 29.95 in 10.0 mi West 16.1 mph 26.5 mph N/A   Mostly Cloudy
3:35 PM 46.8 °F - 30.7 °F 54% 29.95 in 10.0 mi WNW 19.6 mph - N/A   Mostly Cloudy
3:55 PM 46.4 °F 39.5 °F 30.6 °F 54% 29.95 in 10.0 mi WNW 17.3 mph 24.2 mph N/A   Mostly Cloudy
4:15 PM 46.9 °F - 31.1 °F 54% 29.95 in 10.0 mi West 11.5 mph - N/A   Mostly Cloudy
4:35 PM 46.9 °F - 31.3 °F 55% 29.95 in 10.0 mi WNW 15.0 mph - N/A   Overcast
4:55 PM 47.1 °F - 31.6 °F 55% 29.95 in 10.0 mi WNW 15.0 mph - N/A   Overcast
5:15 PM 47.5 °F - 30.9 °F 53% 29.95 in 10.0 mi WNW 11.5 mph - N/A   Mostly Cloudy
5:35 PM 47.7 °F - 31.5 °F 53% 29.95 in 10.0 mi West 13.8 mph 19.6 mph N/A   Mostly Cloudy
5:55 PM 46.4 °F 41.5 °F 31.8 °F 57% 29.95 in 10.0 mi WNW 10.4 mph - N/A   Scattered Clouds
6:15 PM 47.1 °F - 30.6 °F 53% 29.95 in 10.0 mi West 9.2 mph - N/A   Scattered Clouds
6:35 PM 47.1 °F - 31.8 °F 55% 29.95 in 10.0 mi West 8.1 mph - N/A   Scattered Clouds
6:55 PM 45.7 °F 41.0 °F 32.0 °F 59% 29.95 in 10.0 mi West 9.2 mph - N/A   Scattered Clouds
7:15 PM 43.0 °F 40.3 °F 32.9 °F 68% 29.95 in 10.0 mi WNW 4.6 mph - N/A   Mostly Cloudy
7:35 PM 41.0 °F 36.4 °F 32.0 °F 70% 29.95 in 10.0 mi WNW 6.9 mph - N/A   Mostly Cloudy
7:55 PM 41.9 °F 39.0 °F 32.4 °F 69% 29.96 in 10.0 mi NW 4.6 mph - N/A   Mostly Cloudy
8:15 PM 43.3 °F - 31.6 °F 63% 29.96 in 10.0 mi Calm Calm - N/A   Mostly Cloudy
8:35 PM 42.8 °F - 32.0 °F 66% 29.95 in 10.0 mi Calm Calm - N/A   Overcast
8:55 PM 42.3 °F - 32.2 °F 67% 29.95 in 10.0 mi Calm Calm - N/A   Overcast
9:15 PM 41.5 °F - 33.3 °F 72% 29.96 in 10.0 mi Calm Calm - N/A   Overcast
9:35 PM 42.1 °F 40.2 °F 33.1 °F 70% 29.96 in 10.0 mi ENE 3.5 mph - N/A   Overcast
9:55 PM 42.3 °F 40.5 °F 32.9 °F 69% 29.96 in 10.0 mi East 3.5 mph - N/A   Overcast
10:15 PM 42.3 °F 40.5 °F 33.3 °F 70% 29.97 in 10.0 mi East 3.5 mph - N/A   Overcast
10:35 PM 42.3 °F 40.5 °F 33.3 °F 70% 29.96 in 10.0 mi ENE 3.5 mph - N/A   Overcast
10:55 PM 41.9 °F - 34.2 °F 74% 29.97 in 10.0 mi Calm Calm - N/A   Overcast
11:15 PM 42.8 °F - 33.1 °F 69% 29.97 in 10.0 mi Calm Calm - N/A   Overcast
11:35 PM 42.1 °F - 34.3 °F 74% 29.98 in 10.0 mi Calm Calm - N/A   Overcast
11:55 PM 41.9 °F - 34.7 °F 76% 29.98 in 10.0 mi Calm Calm - N/A   Overcast